Date String (YYYY-MM-DD hh:mm:ss) UTC,Instrument flags,Ambient pressure (hPa),Sample flow (lpm),Bypass flow (lpm),Sample temperature (°C),Ambient temperature (°C),ASC tube jacket temperature (°C),LED temperature (°C),Box temperature (°C),Sample RH (%),Span deviation,Mass concentration (μg/m³),Mass concentration (μg/m³),Mass concentration (μg/m³)
DateTimeUTC,F1_M11,P_M11,Q1_M11,Q2_M11,T1_M11,T2_M11,T3_M11,T4_M11,T5_M11,U1_M11,ZSPAN_M11,X0_M11,X2_M11,X1_M11
2023-01-01 09:00:00,,0817.9,4.98,0.00,21.4,20.6,00.0,30.4,23.1,16.7,0000.0,0008.64,0005.38,0005.12
2023-01-01 09:01:00,,0817.9,4.97,0.00,21.6,21.7,00.0,30.4,23.4,16.6,0000.0,0008.60,0005.35,0005.10
2023-01-01 09:02:00,,0817.8,5.03,0.00,21.7,22.0,00.0,30.5,23.6,16.5,0000.0,0008.61,0005.34,0005.10
2023-01-01 09:03:00,,0817.8,5.02,0.00,21.7,21.4,00.0,30.5,23.4,16.5,0000.0,0008.55,0005.30,0005.07
2023-01-01 09:04:00,,0817.8,5.00,0.00,21.6,20.8,00.0,30.5,23.2,16.5,0000.0,0008.51,0005.27,0005.04
2023-01-01 09:05:00,,0817.8,4.99,0.00,21.6,20.3,00.0,30.5,23.1,16.6,0000.0,0008.51,0005.25,0005.03
2023-01-01 09:06:00,,0817.8,4.98,0.00,21.5,20.0,00.0,30.5,23.0,16.6,0000.0,0008.50,0005.24,0005.02
2023-01-01 09:07:00,,0817.7,4.99,0.00,21.5,19.8,00.0,30.5,22.9,16.6,0000.0,0007.84,0005.20,0004.99
2023-01-01 09:08:00,,0817.8,4.96,0.00,21.4,19.6,00.0,30.5,22.9,16.7,0000.0,0007.80,0005.17,0004.97
2023-01-01 09:09:00,,0817.8,5.03,0.00,21.4,19.4,00.0,30.5,22.8,16.7,0000.0,0007.76,0005.16,0004.97
2023-01-01 09:10:00,,0817.8,5.01,0.00,21.3,19.3,00.0,30.4,22.7,16.7,0000.0,0007.75,0005.15,0004.95
2023-01-01 09:11:00,,0817.8,4.98,0.00,21.3,19.2,00.0,30.4,22.7,16.8,0000.0,0007.75,0005.11,0004.91
2023-01-01 09:12:00,,0817.9,4.96,0.00,21.2,19.1,00.0,30.4,22.6,16.8,0000.0,0007.70,0005.07,0004.88
2023-01-01 09:13:00,,0817.8,5.03,0.00,21.2,19.0,00.0,30.3,22.5,16.9,0000.0,0007.76,0005.03,0004.84
2023-01-01 09:14:00,,0817.8,4.99,0.00,21.1,19.0,00.0,30.3,22.5,16.9,0000.0,0008.34,0004.98,0004.79
2023-01-01 09:15:00,,0817.8,5.01,0.00,21.1,19.2,00.0,30.3,22.5,16.9,0000.0,0008.32,0004.94,0004.74
2023-01-01 09:16:00,,0817.8,4.98,0.00,21.2,20.6,00.0,30.2,22.9,16.8,0000.0,0008.15,0004.85,0004.68
2023-01-01 09:17:00,,0817.8,4.98,0.00,21.3,21.9,00.0,30.2,23.3,16.7,0000.0,0008.07,0004.77,0004.60
2023-01-01 09:18:00,,0817.8,5.04,0.00,21.5,22.1,00.0,30.2,23.4,16.5,0000.0,0007.97,0004.69,0004.53
2023-01-01 09:19:00,,0817.9,5.01,0.00,21.5,21.5,00.0,30.3,23.3,16.5,0001.0,0007.88,0004.61,0004.45
2023-01-01 09:20:00,,0817.9,4.99,0.00,21.5,20.9,00.0,30.3,23.2,16.4,0000.0,0007.79,0004.51,0004.35
2023-01-01 09:21:00,,0818.0,4.98,0.00,21.4,20.4,00.0,30.3,23.0,16.4,0000.0,0007.69,0004.41,0004.24
2023-01-01 09:22:00,,0818.0,5.03,0.00,21.4,20.0,00.0,30.3,22.9,16.5,0000.0,0007.57,0004.33,0004.17
2023-01-01 09:23:00,,0818.0,5.00,0.00,21.3,19.7,00.0,30.3,22.8,16.6,0000.0,0007.49,0004.26,0004.09
2023-01-01 09:24:00,,0818.0,4.97,0.00,21.3,19.5,00.0,30.3,22.7,16.7,0000.0,0007.05,0004.16,0004.00
2023-01-01 09:25:00,,0818.0,4.97,0.00,21.3,19.3,00.0,30.3,22.7,16.7,0000.0,0005.78,0004.09,0003.93
2023-01-01 09:26:00,,0818.0,4.97,0.00,21.2,19.2,00.0,30.3,22.6,16.8,0000.0,0005.61,0004.02,0003.86
2023-01-01 09:27:00,,0818.1,5.02,0.00,21.1,19.0,00.0,30.3,22.5,16.8,0000.0,0005.51,0003.96,0003.78
2023-01-01 09:28:00,,0818.0,5.03,0.00,21.1,19.0,00.0,30.2,22.5,16.8,0000.0,0005.33,0003.88,0003.70
2023-01-01 09:29:00,,0818.0,4.99,0.00,21.0,18.9,00.0,30.2,22.4,16.9,0000.0,0005.17,0003.80,0003.62
2023-01-01 09:30:00,,0818.0,4.97,0.00,21.0,18.8,00.0,30.2,22.4,17.0,0000.0,0005.00,0003.73,0003.56
2023-01-01 09:31:00,,0818.0,5.02,0.00,21.0,19.1,00.0,30.1,22.4,17.0,0000.0,0004.83,0003.67,0003.51
2023-01-01 09:32:00,,0818.0,5.03,0.00,21.0,20.5,00.0,30.0,22.8,17.0,0000.0,0004.73,0003.61,0003.46
2023-01-01 09:33:00,,0818.0,4.99,0.00,21.2,21.8,00.0,30.0,23.1,16.8,0000.0,0004.56,0003.55,0003.40
2023-01-01 09:34:00,,0818.0,4.95,0.00,21.4,22.1,00.0,30.1,23.3,16.7,0000.0,0004.49,0003.50,0003.35
2023-01-01 09:35:00,,0818.0,5.03,0.00,21.4,21.4,00.0,30.1,23.2,16.7,0000.0,0004.40,0003.46,0003.30
2023-01-01 09:36:00,,0818.0,5.02,0.00,21.4,20.8,00.0,30.2,23.0,16.6,0000.0,0004.38,0003.43,0003.26
2023-01-01 09:37:00,,0818.0,4.99,0.00,21.3,20.3,00.0,30.2,22.9,16.7,0000.0,0004.21,0003.37,0003.22
2023-01-01 09:38:00,,0818.0,4.97,0.00,21.3,19.9,00.0,30.2,22.8,16.6,0000.0,0004.06,0003.32,0003.19
2023-01-01 09:39:00,,0818.0,5.02,0.00,21.2,19.7,00.0,30.2,22.7,16.8,0000.0,0004.05,0003.31,0003.17
2023-01-01 09:40:00,,0818.0,5.03,0.00,21.2,19.5,00.0,30.2,22.6,16.8,0000.0,0003.97,0003.29,0003.16
2023-01-01 09:41:00,,0818.0,5.00,0.00,21.2,19.3,00.0,30.2,22.6,16.8,0000.0,0003.97,0003.29,0003.15
2023-01-01 09:42:00,,0818.1,4.94,0.00,21.1,19.2,00.0,30.2,22.5,16.7,0000.0,0004.12,0003.31,0003.15
2023-01-01 09:43:00,,0818.1,5.04,0.00,21.1,19.1,00.0,30.1,22.4,16.6,0000.0,0004.19,0003.32,0003.15
2023-01-01 09:44:00,,0818.1,5.00,0.00,21.0,19.0,00.0,30.1,22.4,16.7,0000.0,0004.25,0003.33,0003.16
2023-01-01 09:45:00,,0818.0,4.99,0.00,21.0,18.9,00.0,30.1,22.3,16.7,0000.0,0004.44,0003.34,0003.16
2023-01-01 09:46:00,,0818.1,4.98,0.00,20.9,18.8,00.0,30.1,22.3,16.5,0000.0,0005.07,0003.35,0003.16
2023-01-01 09:47:00,,0818.0,5.03,0.00,20.9,19.1,00.0,30.0,22.3,16.8,0000.0,0005.02,0003.34,0003.16
2023-01-01 09:48:00,,0818.1,4.99,0.00,21.0,20.4,00.0,30.0,22.7,16.6,0000.0,0005.04,0003.34,0003.16
2023-01-01 09:49:00,,0818.2,4.95,0.00,21.1,21.8,00.0,29.9,23.1,16.4,0000.0,0005.09,0003.34,0003.15
2023-01-01 09:50:00,,0818.1,5.01,0.00,21.3,22.1,00.0,30.0,23.3,16.2,0000.0,0005.14,0003.34,0003.15
2023-01-01 09:51:00,,0818.0,5.02,0.00,21.3,21.4,00.0,30.1,23.1,16.2,0000.0,0005.20,0003.35,0003.15
2023-01-01 09:52:00,,0818.0,4.99,0.00,21.3,20.9,00.0,30.1,23.0,16.2,0000.0,0005.19,0003.34,0003.14
2023-01-01 09:53:00,,0818.0,4.99,0.00,21.3,20.4,00.0,30.1,22.9,15.8,0000.0,0005.04,0003.31,0003.13
2023-01-01 09:54:00,,0818.0,4.98,0.00,21.2,20.0,00.0,30.1,22.8,15.5,0000.0,0004.86,0003.26,0003.08
2023-01-01 09:55:00,,0818.0,5.03,0.00,21.2,19.8,00.0,30.1,22.7,15.9,0000.0,0004.89,0003.24,0003.04
2023-01-01 09:56:00,,0818.0,5.01,0.00,21.2,19.6,00.0,30.1,22.7,16.0,0000.0,0004.70,0003.22,0003.01
2023-01-01 09:57:00,,0818.0,4.99,0.00,21.1,19.4,00.0,30.1,22.6,16.0,0000.0,0004.41,0003.20,0002.99
2023-01-01 09:58:00,,0818.0,4.97,0.00,21.1,19.3,00.0,30.1,22.6,16.1,0000.0,0004.50,0003.19,0002.96
2023-01-01 09:59:00,,0818.0,4.99,0.00,21.1,19.3,00.0,30.1,22.6,15.9,0000.0,0004.52,0003.18,0002.92
